Regional Weather Roundup
Issued by NWS

Home | Current Version | Previous Version | Text Only | Print | Product List | Glossary On
Versions: 1 2 3 4 5 6 7 8 9 10 11 12 13 14 15 16 17 18 19 20 21 22 23 24 25 26 27 28 29 30 31 32 33 34 35 36 37 38 39 40 41 42 43 44 45 46 47 48 49 50
000
ASUS43 KFSD 242310
RWRSD

WEATHER ROUNDUP FOR SOUTH DAKOTA
NATIONAL WEATHER SERVICE SIOUX FALLS SD
600 PM CDT TUE MAY 24 2016

NOTE: "FAIR" INDICATES FEW OR NO CLOUDS BELOW 12,000 FEET WITH NO
SIGNIFICANT WEATHER AND/OR OBSTRUCTIONS TO VISIBILITY.


SDZ001>005-009-010-012>017-250000-
NORTHWEST AND NORTH CENTRAL SOUTH DAKOTA

CITY           SKY/WX    TMP DP  RH WIND       PRES   REMARKS
BUFFALO          N/A     73  41  31 SE15      29.76F
FAITH            N/A     73  43  33 SE12      29.84F
MOBRIDGE       SUNNY     79  45  29 SE6       29.82F
$$

SDZ012>016-024>037-041>051-057-063-072>074-250000-
SOUTHWEST AND SOUTH CENTRAL SOUTH DAKOTA

CITY           SKY/WX    TMP DP  RH WIND       PRES   REMARKS
RAPID CTY ARPT CLOUDY    66  45  46 E7        29.83F
PIERRE         SUNNY     80  47  31 E8        29.80F
CUSTER         RAIN      52  40  63 S5G18     29.96R
ELLSWORTH AFB  CLOUDY    68  44  41 NE5       29.83F
PHILIP         CLOUDY    72  52  49 NE10      29.79F
PINE RIDGE     SUNNY     79  44  28 S16G22    29.77F
WINNER         FAIR      82  53  36 SE10      29.81F
$$

SDZ004>011-016>023-039-040-250000-
NORTHEAST SOUTH DAKOTA

CITY           SKY/WX    TMP DP  RH WIND       PRES   REMARKS
ABERDEEN       SUNNY     84  48  28 NW8       29.83F
WATERTOWN      SUNNY     83  43  24 NW3       29.86S
BROOKINGS      SUNNY     84  43  23 SW8       29.86F
SISSETON         N/A     86  40  19 W15       29.82S
$$

SDZ017-020-022-023-036>040-048>070-250000-
SOUTHEAST SOUTH DAKOTA

CITY           SKY/WX    TMP DP  RH WIND       PRES   REMARKS
SIOUX FALLS    MOSUNNY   83  49  30 CALM      29.85F
HURON          SUNNY     83  49  30 MISG      29.82F
CHAMBERLAIN    SUNNY     83  49  29 E3        29.82F
MITCHELL       SUNNY     85  45  24 S5        29.83F
YANKTON        SUNNY     82  55  39 E6        29.82F
$$

ABBREVIATIONS USED IN REMARKS
   TC - TEMPERATURE IN CELSIUS
  WCI - WIND CHILL INDEX
   HX - HEAT INDEX
  VSB - VISIBILITY





USA.gov is the U.S. government's official web portal to all federal, state and local government web resources and services.